This is the latest recevied weather packets stored in our database for station/object KM4CNW. If no packets are shown the sender has not sent any weather packets the latest 10 day(s).
| Time | Temp. | Humidity | Pressure | Rain* | Wind** | Luminosity | Snow |
|---|---|---|---|---|---|---|---|
| 1777761552 | 16.67° C | 34% | 1006.2 hPa | 0 mm | - | 147 W/m² | - |
| 1777761250 | 16.67° C | 35% | 1006.1 hPa | 0 mm | - | 168 W/m² | - |
| 1777760948 | 16.67° C | 33% | 1005.9 hPa | 0 mm | - | 189 W/m² | - |
| 1777760645 | 16.67° C | 33% | 1005.9 hPa | 0 mm | - | 219 W/m² | - |
| 1777760340 | 16.67° C | 36% | 1005.8 hPa | 0 mm | - | 244 W/m² | - |
| 1777760037 | 16.67° C | 35% | 1005.9 hPa | 0 mm | - | 257 W/m² | - |
| 1777759734 | 16.67° C | 34% | 1005.8 hPa | 0 mm | - | 265 W/m² | - |
| 1777759430 | 16.67° C | 34% | 1005.8 hPa | 0 mm | - | 295 W/m² | - |
| 1777759127 | 17.22° C | 33% | 1005.7 hPa | 0 mm | - | 319 W/m² | - |
| 1777758825 | 16.67° C | 33% | 1005.5 hPa | 0 mm | - | 380 W/m² | - |
| 1777758521 | 16.67° C | 36% | 1005.6 hPa | 0 mm | - | 440 W/m² | - |
| 1777758217 | 16.67° C | 35% | 1005.8 hPa | 0 mm | - | 223 W/m² | - |
| 1777757915 | 17.78° C | 32% | 1005.6 hPa | 0 mm | - | 154 W/m² | - |
| 1777757612 | 17.22° C | 35% | 1005.7 hPa | 0 mm | - | 481 W/m² | - |
| 1777757311 | 17.22° C | 35% | 1005.7 hPa | 0 mm | - | 416 W/m² | - |
| 1777757009 | 16.67° C | 35% | 1005.8 hPa | 0 mm | - | 523 W/m² | - |
| 1777756706 | 16.67° C | 34% | 1005.7 hPa | 0 mm | - | 569 W/m² | - |
| 1777756401 | 16.11° C | 33% | 1005.5 hPa | 0 mm | - | 612 W/m² | - |
| 1777756099 | 16.67° C | 32% | 1005.7 hPa | 0 mm | - | 426 W/m² | - |
| 1777755796 | 16.67° C | 32% | 1005.6 hPa | 0 mm | - | 511 W/m² | - |
| 1777755493 | 16.11° C | 32% | 1005.6 hPa | 0 mm | - | 442 W/m² | - |
| 1777755189 | 16.67° C | 33% | 1005.6 hPa | 0 mm | - | 244 W/m² | - |
| 1777754886 | 16.67° C | 33% | 1005.6 hPa | 0 mm | - | 362 W/m² | - |
| 1777754583 | 17.22° C | 33% | 1005.6 hPa | 0 mm | - | 649 W/m² | - |
| 1777754281 | 16.67° C | 33% | 1005.6 hPa | 0 mm | - | 646 W/m² | - |
* Rain latest hour (hover to see other rain measurements)
** Current wind speed in m/s (hover to see current wind gust speed)